Location: Quaker Farms
(41.4276°N, 73.1557°W)
Time: 19:53:59
(UTC+00:00)

S-56A Canister/Altair - Pass Details

Date: 18 June 2021
Orbit: 631 x 2501 km, 38.9° (Epoch: 30 July)

Event Time Altitude Azimuth Distance (km) Brightness Sun altitude
Rises 13:29:53 0° 275° (W) 3,164 10.3 44.1°
Reaches altitude 10° 13:32:01 10° 271° (W) 2,370 9.7 44.5°
Maximum altitude 13:37:23 56° 194° (SSW) 1,173 9.1 45.5°
Drops below altitude 10° 13:45:18 10° 118° (ESE) 3,441 11.8 47.0°
Sets 13:49:00 0° 115° (ESE) 4,733 12.2 47.6°
